Time,TemperatureF,DewpointF,PressureIn,WindDirection,WindDirectionDegrees,WindSpeedMPH,WindSpeedGustMPH,Humidity,HourlyPrecipIn,Conditions,Clouds,dailyrainin,SoftwareType,DateUTC
2013-03-25 00:00:00,75.4,71.9,29.72,South,186,0.0,0.0,89,0.00,,,0.00,Wunderground PWS Mod,2013-03-25 04:00:00,
2013-03-25 00:02:00,75.4,71.9,29.72,South,186,0.0,0.0,89,0.00,,,0.00,Wunderground PWS Mod,2013-03-25 04:02:00,
2013-03-25 00:04:00,75.4,71.9,29.72,South,186,0.0,0.0,89,0.00,,,0.00,Wunderground PWS Mod,2013-03-25 04:04:00,
2013-03-25 00:08:00,75.3,72.2,29.72,N/A,-737280,0.0,0.0,90,0.00,,,0.00,Wunderground PWS Mod,2013-03-25 04:08:00,
2013-03-25 00:10:00,75.3,71.8,29.72,South,186,0.0,0.0,89,0.00,,,0.00,Wunderground PWS Mod,2013-03-25 04:10:00,
2013-03-25 00:16:00,75.3,72.2,29.72,South,186,0.0,3.0,90,0.00,,,0.00,Wunderground PWS Mod,2013-03-25 04:16:00,
2013-03-25 00:18:00,75.3,72.2,29.72,ESE,113,0.0,3.0,90,0.00,,,0.00,Wunderground PWS Mod,2013-03-25 04:18:00,
2013-03-25 00:24:00,75.3,72.2,29.72,ESE,113,0.0,0.0,90,0.00,,,0.00,Wunderground PWS Mod,2013-03-25 04:24:00,
2013-03-25 00:30:00,75.4,72.3,29.72,SE,125,0.0,1.0,90,0.00,,,0.00,Wunderground PWS Mod,2013-03-25 04:30:00,
2013-03-25 00:34:00,75.4,72.3,29.72,N/A,-737280,0.0,0.0,90,0.00,,,0.00,Wunderground PWS Mod,2013-03-25 04:34:00,
2013-03-25 00:38:00,75.4,72.3,29.72,South,186,0.0,3.0,90,0.00,,,0.00,Wunderground PWS Mod,2013-03-25 04:38:00,
2013-03-25 00:44:00,75.4,72.3,29.72,South,186,0.0,0.0,90,0.00,,,0.00,Wunderground PWS Mod,2013-03-25 04:44:00,
2013-03-25 00:50:00,75.4,72.3,29.72,South,186,0.0,0.0,90,0.00,,,0.00,Wunderground PWS Mod,2013-03-25 04:50:00,
2013-03-25 00:56:00,75.4,72.3,29.72,South,186,0.0,0.0,90,0.00,,,0.00,Wunderground PWS Mod,2013-03-25 04:56:00,
2013-03-25 01:02:00,75.3,72.2,29.72,South,186,0.0,0.0,90,0.00,,,0.00,Wunderground PWS Mod,2013-03-25 05:02:00,
2013-03-25 01:08:00,75.3,72.2,29.72,South,186,0.0,0.0,90,0.00,,,0.00,Wunderground PWS Mod,2013-03-25 05:08:00,
2013-03-25 01:14:00,75.3,72.2,29.72,South,186,0.0,2.0,90,0.00,,,0.00,Wunderground PWS Mod,2013-03-25 05:14:00,
2013-03-25 01:20:00,75.4,72.3,29.72,SW,232,0.0,4.0,90,0.00,,,0.00,Wunderground PWS Mod,2013-03-25 05:20:00,
2013-03-25 01:26:00,75.3,72.2,29.72,NW,319,1.0,1.0,90,0.00,,,0.00,Wunderground PWS Mod,2013-03-25 05:26:00,
2013-03-25 01:32:00,75.3,72.2,29.72,ESE,113,0.0,0.0,90,0.00,,,0.00,Wunderground PWS Mod,2013-03-25 05:32:00,
2013-03-25 01:38:00,75.3,72.2,29.72,ENE,60,0.0,1.0,90,0.00,,,0.00,Wunderground PWS Mod,2013-03-25 05:38:00,
2013-03-25 01:44:00,75.3,72.2,29.72,SSE,158,0.0,2.0,90,0.00,,,0.00,Wunderground PWS Mod,2013-03-25 05:44:00,
2013-03-25 01:50:00,75.1,72.3,29.72,SSE,157,0.0,0.0,91,0.00,,,0.00,Wunderground PWS Mod,2013-03-25 05:50:00,
2013-03-25 01:54:00,75.3,72.5,29.72,N/A,-737280,0.0,0.0,91,0.00,,,0.00,Wunderground PWS Mod,2013-03-25 05:54:00,
2013-03-25 01:56:00,75.1,72.3,29.72,SSE,158,0.0,0.0,91,0.00,,,0.00,Wunderground PWS Mod,2013-03-25 05:56:00,
2013-03-25 02:02:00,75.1,72.3,29.72,SSE,158,0.0,1.0,91,0.00,,,0.00,Wunderground PWS Mod,2013-03-25 06:02:00,
2013-03-25 02:08:00,75.3,72.5,29.72,SSE,157,0.0,2.0,91,0.00,,,0.00,Wunderground PWS Mod,2013-03-25 06:08:00,
2013-03-25 02:14:00,75.3,72.5,29.72,SSE,157,0.0,0.0,91,0.00,,,0.00,Wunderground PWS Mod,2013-03-25 06:14:00,
2013-03-25 02:20:00,75.3,72.5,29.72,NW,318,0.0,3.0,91,0.00,,,0.00,Wunderground PWS Mod,2013-03-25 06:20:00,
2013-03-25 02:26:00,75.1,72.0,29.72,North,5,1.0,2.0,90,0.00,,,0.00,Wunderground PWS Mod,2013-03-25 06:26:00,
2013-03-25 02:28:00,74.2,71.1,29.72,N/A,-737280,0.0,0.0,90,0.00,,,0.00,Wunderground PWS Mod,2013-03-25 06:28:00,
2013-03-25 02:32:00,74.9,71.8,29.72,NW,304,1.0,4.0,90,0.00,,,0.00,Wunderground PWS Mod,2013-03-25 06:32:00,
2013-03-25 02:38:00,74.6,71.5,29.72,West,265,1.0,2.0,90,0.00,,,0.00,Wunderground PWS Mod,2013-03-25 06:38:00,
2013-03-25 02:44:00,74.2,71.1,29.72,West,265,0.0,1.0,90,0.00,,,0.00,Wunderground PWS Mod,2013-03-25 06:44:00,
2013-03-25 02:50:00,74.0,70.9,29.72,West,265,0.0,2.0,90,0.00,,,0.00,Wunderground PWS Mod,2013-03-25 06:50:00,
2013-03-25 02:56:00,73.9,70.8,29.72,West,265,0.0,2.0,90,0.00,,,0.00,Wunderground PWS Mod,2013-03-25 06:56:00,
2013-03-25 03:02:00,73.7,70.6,29.72,SSW,192,0.0,1.0,90,0.00,,,0.00,Wunderground PWS Mod,2013-03-25 07:02:00,
2013-03-25 03:04:00,73.2,70.1,29.72,N/A,-737280,0.0,0.0,90,0.00,,,0.00,Wunderground PWS Mod,2013-03-25 07:04:00,
2013-03-25 03:08:00,73.5,70.4,29.72,SSW,192,0.0,1.0,90,0.00,,,0.00,Wunderground PWS Mod,2013-03-25 07:08:00,
2013-03-25 03:14:00,73.3,70.2,29.72,SSW,192,0.0,1.0,90,0.00,,,0.00,Wunderground PWS Mod,2013-03-25 07:14:00,
2013-03-25 03:20:00,73.3,70.2,29.72,East,101,0.0,1.0,90,0.00,,,0.00,Wunderground PWS Mod,2013-03-25 07:20:00,
2013-03-25 03:26:00,73.2,70.1,29.72,East,101,0.0,0.0,90,0.00,,,0.00,Wunderground PWS Mod,2013-03-25 07:26:00,
2013-03-25 03:32:00,73.0,69.9,29.72,East,101,0.0,0.0,90,0.00,,,0.00,Wunderground PWS Mod,2013-03-25 07:32:00,
2013-03-25 03:38:00,72.7,69.6,29.72,NNE,28,0.0,3.0,90,0.00,,,0.00,Wunderground PWS Mod,2013-03-25 07:38:00,
2013-03-25 03:44:00,72.5,69.4,29.72,NNE,28,0.0,1.0,90,0.00,,,0.00,Wunderground PWS Mod,2013-03-25 07:44:00,
2013-03-25 03:50:00,72.3,69.2,29.72,NNE,28,0.0,0.0,90,0.00,,,0.00,Wunderground PWS Mod,2013-03-25 07:50:00,
2013-03-25 03:56:00,72.1,69.0,29.72,NNE,28,0.0,0.0,90,0.00,,,0.00,Wunderground PWS Mod,2013-03-25 07:56:00,
2013-03-25 04:02:00,72.0,68.9,29.72,NNE,28,0.0,0.0,90,0.00,,,0.00,Wunderground PWS Mod,2013-03-25 08:02:00,
2013-03-25 04:08:00,71.8,68.7,29.71,NNE,28,0.0,0.0,90,0.00,,,0.00,Wunderground PWS Mod,2013-03-25 08:08:00,
2013-03-25 04:14:00,71.5,68.4,29.71,NNE,28,0.0,0.0,90,0.00,,,0.00,Wunderground PWS Mod,2013-03-25 08:14:00,
2013-03-25 04:20:00,71.1,68.0,29.71,NNE,28,0.0,0.0,90,0.00,,,0.00,Wunderground PWS Mod,2013-03-25 08:20:00,
2013-03-25 04:24:00,70.4,67.3,29.71,N/A,-737280,0.0,0.0,90,0.00,,,0.00,Wunderground PWS Mod,2013-03-25 08:24:00,
2013-03-25 04:26:00,70.9,67.8,29.71,NNE,28,0.0,0.0,90,0.00,,,0.00,Wunderground PWS Mod,2013-03-25 08:26:00,
2013-03-25 04:32:00,70.8,67.7,29.71,NNE,28,0.0,0.0,90,0.00,,,0.00,Wunderground PWS Mod,2013-03-25 08:32:00,
2013-03-25 04:38:00,70.6,67.5,29.71,NNE,28,0.0,0.0,90,0.00,,,0.00,Wunderground PWS Mod,2013-03-25 08:38:00,
2013-03-25 04:44:00,70.4,67.3,29.71,NNE,28,0.0,0.0,90,0.00,,,0.00,Wunderground PWS Mod,2013-03-25 08:44:00,
2013-03-25 04:50:00,70.1,67.3,29.71,NNE,28,0.0,0.0,91,0.00,,,0.00,Wunderground PWS Mod,2013-03-25 08:50:00,
2013-03-25 04:56:00,69.9,67.2,29.71,NNE,28,0.0,0.0,91,0.00,,,0.00,Wunderground PWS Mod,2013-03-25 08:56:00,
2013-03-25 05:02:00,69.8,67.1,29.71,NNE,28,0.0,0.0,91,0.00,,,0.00,Wunderground PWS Mod,2013-03-25 09:02:00,
2013-03-25 05:08:00,69.4,66.7,29.71,NNE,28,0.0,0.0,91,0.00,,,0.00,Wunderground PWS Mod,2013-03-25 09:08:00,
2013-03-25 05:12:00,68.6,66.2,29.72,N/A,-737280,0.0,0.0,92,0.00,,,0.00,Wunderground PWS Mod,2013-03-25 09:12:00,
2013-03-25 05:14:00,69.1,66.4,29.71,NNE,28,0.0,0.0,91,0.00,,,0.00,Wunderground PWS Mod,2013-03-25 09:14:00,
2013-03-25 05:20:00,68.8,66.4,29.72,NNE,28,0.0,0.0,92,0.00,,,0.00,Wunderground PWS Mod,2013-03-25 09:20:00,
2013-03-25 05:26:00,68.6,66.2,29.72,NNE,28,0.0,0.0,92,0.00,,,0.00,Wunderground PWS Mod,2013-03-25 09:26:00,
2013-03-25 05:32:00,68.6,66.2,29.72,NNE,28,0.0,0.0,92,0.00,,,0.00,Wunderground PWS Mod,2013-03-25 09:32:00,
2013-03-25 05:38:00,68.4,66.0,29.72,NNE,28,0.0,0.0,92,0.00,,,0.00,Wunderground PWS Mod,2013-03-25 09:38:00,
2013-03-25 05:40:00,67.6,65.2,29.72,N/A,-737280,0.0,0.0,92,0.00,,,0.00,Wunderground PWS Mod,2013-03-25 09:40:00,
2013-03-25 05:44:00,68.3,65.9,29.72,NNE,28,0.0,0.0,92,0.00,,,0.00,Wunderground PWS Mod,2013-03-25 09:44:00,
2013-03-25 05:50:00,68.1,65.7,29.72,NNE,28,0.0,0.0,92,0.00,,,0.00,Wunderground PWS Mod,2013-03-25 09:50:00,
2013-03-25 05:56:00,67.8,65.4,29.72,NNE,28,0.0,0.0,92,0.00,,,0.00,Wunderground PWS Mod,2013-03-25 09:56:00,
2013-03-25 06:02:00,67.6,65.5,29.72,NNE,28,0.0,0.0,93,0.00,,,0.00,Wunderground PWS Mod,2013-03-25 10:02:00,
2013-03-25 06:06:00,67.3,64.9,29.72,N/A,-737280,0.0,0.0,92,0.00,,,0.00,Wunderground PWS Mod,2013-03-25 10:06:00,
2013-03-25 06:08:00,67.4,65.3,29.72,NNE,28,0.0,0.0,93,0.00,,,0.00,Wunderground PWS Mod,2013-03-25 10:08:00,
2013-03-25 06:14:00,67.4,65.3,29.72,NNE,28,0.0,0.0,93,0.00,,,0.00,Wunderground PWS Mod,2013-03-25 10:14:00,
2013-03-25 06:20:00,67.3,64.9,29.72,NNE,28,0.0,0.0,92,0.00,,,0.00,Wunderground PWS Mod,2013-03-25 10:20:00,
2013-03-25 06:26:00,67.3,64.9,29.72,NNE,28,0.0,0.0,92,0.00,,,0.00,Wunderground PWS Mod,2013-03-25 10:26:00,
2013-03-25 06:32:00,67.1,64.7,29.72,NNE,28,0.0,0.0,92,0.00,,,0.00,Wunderground PWS Mod,2013-03-25 10:32:00,
2013-03-25 06:36:00,66.9,64.2,29.73,N/A,-737280,0.0,0.0,91,0.00,,,0.00,Wunderground PWS Mod,2013-03-25 10:36:00,
2013-03-25 06:38:00,67.1,64.7,29.73,NNE,28,0.0,0.0,92,0.00,,,0.00,Wunderground PWS Mod,2013-03-25 10:38:00,
2013-03-25 06:44:00,67.1,64.4,29.73,NNE,28,0.0,0.0,91,0.00,,,0.00,Wunderground PWS Mod,2013-03-25 10:44:00,
2013-03-25 06:50:00,66.9,64.2,29.73,NNE,28,0.0,0.0,91,0.00,,,0.00,Wunderground PWS Mod,2013-03-25 10:50:00,
2013-03-25 06:56:00,66.8,64.1,29.73,NNE,28,0.0,0.0,91,0.00,,,0.00,Wunderground PWS Mod,2013-03-25 10:56:00,
2013-03-25 07:02:00,66.8,64.1,29.73,NNE,28,0.0,0.0,91,0.00,,,0.00,Wunderground PWS Mod,2013-03-25 11:02:00,
2013-03-25 07:06:00,66.4,63.4,29.74,N/A,-737280,0.0,0.0,90,0.00,,,0.00,Wunderground PWS Mod,2013-03-25 11:06:00,
2013-03-25 07:08:00,66.6,63.9,29.74,NNE,28,0.0,0.0,91,0.00,,,0.00,Wunderground PWS Mod,2013-03-25 11:08:00,
2013-03-25 07:14:00,66.6,63.6,29.74,NNE,28,0.0,0.0,90,0.00,,,0.00,Wunderground PWS Mod,2013-03-25 11:14:00,
2013-03-25 07:20:00,66.6,63.6,29.73,NNE,28,0.0,0.0,90,0.00,,,0.00,Wunderground PWS Mod,2013-03-25 11:20:00,
2013-03-25 07:28:00,66.4,63.4,29.73,NNE,28,0.0,0.0,90,0.00,,,0.00,Wunderground PWS Mod,2013-03-25 11:28:00,
2013-03-25 07:34:00,66.3,63.3,29.75,NNE,28,0.0,0.0,90,0.00,,,0.00,Wunderground PWS Mod,2013-03-25 11:34:00,
2013-03-25 07:40:00,66.1,63.1,29.75,NNE,28,0.0,0.0,90,0.00,,,0.00,Wunderground PWS Mod,2013-03-25 11:40:00,
2013-03-25 07:44:00,66.1,63.1,29.77,N/A,-737280,0.0,0.0,90,0.00,,,0.00,Wunderground PWS Mod,2013-03-25 11:44:00,
2013-03-25 07:46:00,66.1,63.1,29.75,NNE,28,0.0,0.0,90,0.00,,,0.00,Wunderground PWS Mod,2013-03-25 11:46:00,
2013-03-25 07:52:00,66.0,63.0,29.77,NNE,28,0.0,0.0,90,0.00,,,0.00,Wunderground PWS Mod,2013-03-25 11:52:00,
2013-03-25 07:58:00,66.1,63.1,29.77,NNE,28,0.0,0.0,90,0.00,,,0.00,Wunderground PWS Mod,2013-03-25 11:58:00,
2013-03-25 08:04:00,66.1,63.1,29.77,NNE,28,0.0,0.0,90,0.00,,,0.00,Wunderground PWS Mod,2013-03-25 12:04:00,
2013-03-25 08:06:00,66.8,63.8,29.78,N/A,-737280,0.0,0.0,90,0.00,,,0.00,Wunderground PWS Mod,2013-03-25 12:06:00,
2013-03-25 08:10:00,66.3,63.3,29.77,NNE,28,0.0,0.0,90,0.00,,,0.00,Wunderground PWS Mod,2013-03-25 12:10:00,
2013-03-25 08:16:00,66.4,63.4,29.77,NNE,28,0.0,0.0,90,0.00,,,0.00,Wunderground PWS Mod,2013-03-25 12:16:00,
2013-03-25 08:22:00,66.8,63.8,29.78,NNE,28,0.0,0.0,90,0.00,,,0.00,Wunderground PWS Mod,2013-03-25 12:22:00,
2013-03-25 08:28:00,66.9,63.9,29.78,NNE,28,0.0,0.0,90,0.00,,,0.00,Wunderground PWS Mod,2013-03-25 12:28:00,
2013-03-25 08:34:00,67.3,63.9,29.80,NNE,28,0.0,1.0,89,0.00,,,0.00,Wunderground PWS Mod,2013-03-25 12:34:00,
2013-03-25 08:38:00,68.6,63.9,29.80,NNE,23,0.0,2.0,85,0.00,,,0.00,Wunderground PWS Mod,2013-03-25 12:38:00,
2013-03-25 08:40:00,67.6,64.2,29.80,NNE,28,0.0,2.0,89,0.00,,,0.00,Wunderground PWS Mod,2013-03-25 12:40:00,
2013-03-25 08:46:00,67.9,64.2,29.80,NNE,28,0.0,1.0,88,0.00,,,0.00,Wunderground PWS Mod,2013-03-25 12:46:00,
2013-03-25 08:52:00,68.4,64.4,29.80,NE,46,0.0,2.0,87,0.00,,,0.00,Wunderground PWS Mod,2013-03-25 12:52:00,
2013-03-25 08:58:00,68.6,63.9,29.80,North,5,1.0,5.0,85,0.00,,,0.00,Wunderground PWS Mod,2013-03-25 12:58:00,
2013-03-25 09:04:00,68.8,63.4,29.82,NNW,333,1.0,3.0,83,0.00,,,0.00,Wunderground PWS Mod,2013-03-25 13:04:00,
2013-03-25 09:10:00,68.8,62.4,29.82,NW,309,1.0,3.0,80,0.00,,,0.00,Wunderground PWS Mod,2013-03-25 13:10:00,
2013-03-25 09:16:00,68.6,61.8,29.82,West,269,0.0,1.0,79,0.00,,,0.00,Wunderground PWS Mod,2013-03-25 13:16:00,
2013-03-25 09:18:00,69.9,60.8,29.83,NNW,338,1.0,3.0,73,0.00,,,0.00,Wunderground PWS Mod,2013-03-25 13:18:00,
2013-03-25 09:22:00,68.9,62.1,29.82,West,269,0.0,0.0,79,0.00,,,0.00,Wunderground PWS Mod,2013-03-25 13:22:00,
2013-03-25 09:28:00,69.4,61.5,29.82,WNW,283,0.0,2.0,76,0.00,,,0.00,Wunderground PWS Mod,2013-03-25 13:28:00,
2013-03-25 09:34:00,69.8,61.5,29.83,North,355,1.0,1.0,75,0.00,,,0.00,Wunderground PWS Mod,2013-03-25 13:34:00,
2013-03-25 09:40:00,69.9,60.1,29.83,NW,317,1.0,3.0,71,0.00,,,0.00,Wunderground PWS Mod,2013-03-25 13:40:00,
2013-03-25 09:44:00,69.2,55.2,29.84,SE,135,0.0,1.0,61,0.00,,,0.00,Wunderground PWS Mod,2013-03-25 13:44:00,
2013-03-25 09:46:00,69.8,58.3,29.83,NW,321,1.0,2.0,67,0.00,,,0.00,Wunderground PWS Mod,2013-03-25 13:46:00,
2013-03-25 09:52:00,69.6,57.3,29.84,NW,321,0.0,2.0,65,0.00,,,0.00,Wunderground PWS Mod,2013-03-25 13:52:00,
2013-03-25 09:58:00,69.4,56.7,29.84,NW,321,0.0,1.0,64,0.00,,,0.00,Wunderground PWS Mod,2013-03-25 13:58:00,
2013-03-25 10:04:00,69.1,55.1,29.85,SE,134,0.0,3.0,61,0.00,,,0.00,Wunderground PWS Mod,2013-03-25 14:04:00,
2013-03-25 10:10:00,69.1,55.5,29.85,SE,134,0.0,0.0,62,0.00,,,0.00,Wunderground PWS Mod,2013-03-25 14:10:00,
2013-03-25 10:12:00,70.4,56.3,29.86,N/A,-737280,0.0,0.0,61,0.00,,,0.00,Wunderground PWS Mod,2013-03-25 14:12:00,
2013-03-25 10:16:00,69.4,55.8,29.85,NE,34,0.0,1.0,62,0.00,,,0.00,Wunderground PWS Mod,2013-03-25 14:16:00,
2013-03-25 10:22:00,69.6,56.0,29.86,North,5,0.0,2.0,62,0.00,,,0.00,Wunderground PWS Mod,2013-03-25 14:22:00,
2013-03-25 10:28:00,70.1,56.0,29.86,North,11,0.0,1.0,61,0.00,,,0.00,Wunderground PWS Mod,2013-03-25 14:28:00,
2013-03-25 10:34:00,70.8,56.7,29.85,North,5,0.0,3.0,61,0.00,,,0.00,Wunderground PWS Mod,2013-03-25 14:34:00,
2013-03-25 10:40:00,70.9,55.9,29.85,North,355,1.0,3.0,59,0.00,,,0.00,Wunderground PWS Mod,2013-03-25 14:40:00,
2013-03-25 10:48:00,71.8,56.2,29.85,North,355,0.0,0.0,58,0.00,,,0.00,Wunderground PWS Mod,2013-03-25 14:48:00,
2013-03-25 10:54:00,72.0,55.9,29.86,NNE,29,0.0,2.0,57,0.00,,,0.00,Wunderground PWS Mod,2013-03-25 14:54:00,
2013-03-25 10:56:00,73.3,55.6,29.86,N/A,-737280,0.0,0.0,54,0.00,,,0.00,Wunderground PWS Mod,2013-03-25 14:56:00,
2013-03-25 11:00:00,72.3,55.2,29.86,NNE,17,0.0,0.0,55,0.00,,,0.00,Wunderground PWS Mod,2013-03-25 15:00:00,
2013-03-25 11:06:00,72.7,55.1,29.86,SW,220,0.0,2.0,54,0.00,,,0.00,Wunderground PWS Mod,2013-03-25 15:06:00,
2013-03-25 11:12:00,73.2,55.6,29.86,North,9,0.0,0.0,54,0.00,,,0.00,Wunderground PWS Mod,2013-03-25 15:12:00,
2013-03-25 11:18:00,73.5,54.8,29.86,WSW,239,0.0,3.0,52,0.00,,,0.00,Wunderground PWS Mod,2013-03-25 15:18:00,
2013-03-25 11:24:00,74.2,56.5,29.86,NNE,19,1.0,1.0,54,0.00,,,0.00,Wunderground PWS Mod,2013-03-25 15:24:00,
2013-03-25 11:30:00,74.0,55.8,29.86,NNE,26,1.0,1.0,53,0.00,,,0.00,Wunderground PWS Mod,2013-03-25 15:30:00,
2013-03-25 11:38:00,74.4,55.1,29.86,NNE,19,1.0,1.0,51,0.00,,,0.00,Wunderground PWS Mod,2013-03-25 15:38:00,
2013-03-25 11:44:00,74.6,55.3,29.86,North,11,1.0,3.0,51,0.00,,,0.00,Wunderground PWS Mod,2013-03-25 15:44:00,
2013-03-25 11:50:00,74.9,53.9,29.86,WNW,293,1.0,5.0,48,0.00,,,0.00,Wunderground PWS Mod,2013-03-25 15:50:00,
2013-03-25 11:56:00,74.7,53.7,29.86,NE,51,1.0,3.0,48,0.00,,,0.00,Wunderground PWS Mod,2013-03-25 15:56:00,
2013-03-25 12:02:00,74.6,53.0,29.86,North,5,1.0,4.0,47,0.00,,,0.00,Wunderground PWS Mod,2013-03-25 16:02:00,
2013-03-25 12:08:00,74.7,53.7,29.86,NNE,13,2.0,5.0,48,0.00,,,0.00,Wunderground PWS Mod,2013-03-25 16:08:00,
2013-03-25 12:14:00,74.9,55.6,29.86,NNE,24,2.0,6.0,51,0.00,,,0.00,Wunderground PWS Mod,2013-03-25 16:14:00,
2013-03-25 12:20:00,75.6,53.9,29.86,SE,142,1.0,1.0,47,0.00,,,0.00,Wunderground PWS Mod,2013-03-25 16:20:00,
2013-03-25 12:28:00,76.5,55.3,29.86,WNW,292,1.0,3.0,48,0.00,,,0.00,Wunderground PWS Mod,2013-03-25 16:28:00,
2013-03-25 12:34:00,76.8,52.6,29.86,NNE,26,1.0,5.0,43,0.00,,,0.00,Wunderground PWS Mod,2013-03-25 16:34:00,
2013-03-25 12:38:00,78.1,55.0,29.86,NNE,23,1.0,2.0,45,0.00,,,0.00,Wunderground PWS Mod,2013-03-25 16:38:00,
2013-03-25 12:40:00,77.4,54.4,29.86,NNE,15,1.0,2.0,45,0.00,,,0.00,Wunderground PWS Mod,2013-03-25 16:40:00,
2013-03-25 12:46:00,77.4,51.9,29.86,NNE,14,1.0,4.0,41,0.00,,,0.00,Wunderground PWS Mod,2013-03-25 16:46:00,
2013-03-25 12:52:00,77.7,56.4,29.86,North,5,2.0,4.0,48,0.00,,,0.00,Wunderground PWS Mod,2013-03-25 16:52:00,
2013-03-25 12:58:00,78.1,54.4,29.86,North,350,2.0,4.0,44,0.00,,,0.00,Wunderground PWS Mod,2013-03-25 16:58:00,
2013-03-25 13:04:00,78.3,54.6,29.86,NW,309,1.0,5.0,44,0.00,,,0.00,Wunderground PWS Mod,2013-03-25 17:04:00,
2013-03-25 13:10:00,78.5,54.1,29.86,NNE,18,1.0,4.0,43,0.00,,,0.00,Wunderground PWS Mod,2013-03-25 17:10:00,
2013-03-25 13:16:00,78.3,53.3,29.86,North,11,1.0,6.0,42,0.00,,,0.00,Wunderground PWS Mod,2013-03-25 17:16:00,
2013-03-25 13:22:00,78.3,55.2,29.85,NNE,13,1.0,1.0,45,0.00,,,0.00,Wunderground PWS Mod,2013-03-25 17:22:00,
2013-03-25 13:28:00,78.8,53.8,29.85,NNE,14,1.0,3.0,42,0.00,,,0.00,Wunderground PWS Mod,2013-03-25 17:28:00,
2013-03-25 13:34:00,78.8,53.1,29.85,WNW,292,2.0,4.0,41,0.00,,,0.00,Wunderground PWS Mod,2013-03-25 17:34:00,
2013-03-25 13:40:00,78.6,52.3,29.85,NNE,17,2.0,3.0,40,0.00,,,0.00,Wunderground PWS Mod,2013-03-25 17:40:00,
2013-03-25 13:46:00,78.8,53.1,29.85,ENE,64,1.0,3.0,41,0.00,,,0.00,Wunderground PWS Mod,2013-03-25 17:46:00,
2013-03-25 13:52:00,79.0,51.2,29.84,WNW,288,1.0,1.0,38,0.00,,,0.00,Wunderground PWS Mod,2013-03-25 17:52:00,
2013-03-25 13:58:00,79.0,50.5,29.84,NNE,16,1.0,3.0,37,0.00,,,0.00,Wunderground PWS Mod,2013-03-25 17:58:00,
2013-03-25 14:00:00,78.7,51.0,29.84,NNW,338,1.0,3.0,38,0.00,,,0.00,Wunderground PWS Mod,2013-03-25 18:00:00,
2013-03-25 14:02:00,78.6,50.9,29.84,N/A,-737280,0.0,0.0,38,0.00,,,0.00,Wunderground PWS Mod,2013-03-25 18:02:00,
2013-03-25 14:04:00,78.8,50.3,29.84,West,277,1.0,2.0,37,0.00,,,0.00,Wunderground PWS Mod,2013-03-25 18:04:00,
2013-03-25 14:10:00,79.0,51.9,29.84,NNE,22,1.0,3.0,39,0.00,,,0.00,Wunderground PWS Mod,2013-03-25 18:10:00,
2013-03-25 14:16:00,78.8,51.0,29.84,North,5,1.0,2.0,38,0.00,,,0.00,Wunderground PWS Mod,2013-03-25 18:16:00,
2013-03-25 14:22:00,78.6,50.9,29.84,NNW,334,0.0,3.0,38,0.00,,,0.00,Wunderground PWS Mod,2013-03-25 18:22:00,
2013-03-25 14:28:00,78.5,49.3,29.84,NNE,25,1.0,4.0,36,0.00,,,0.00,Wunderground PWS Mod,2013-03-25 18:28:00,
2013-03-25 14:34:00,78.6,51.6,29.83,NW,319,1.0,3.0,39,0.00,,,0.00,Wunderground PWS Mod,2013-03-25 18:34:00,
2013-03-25 14:40:00,78.6,49.4,29.83,SW,214,0.0,1.0,36,0.00,,,0.00,Wunderground PWS Mod,2013-03-25 18:40:00,
2013-03-25 14:46:00,78.6,49.4,29.83,NW,316,1.0,3.0,36,0.00,,,0.00,Wunderground PWS Mod,2013-03-25 18:46:00,
2013-03-25 14:52:00,78.6,49.4,29.83,NNW,338,1.0,2.0,36,0.00,,,0.00,Wunderground PWS Mod,2013-03-25 18:52:00,
2013-03-25 14:58:00,78.8,50.3,29.83,SSE,159,0.0,2.0,37,0.00,,,0.00,Wunderground PWS Mod,2013-03-25 18:58:00,
2013-03-25 15:04:00,79.2,50.7,29.83,WNW,293,1.0,3.0,37,0.00,,,0.00,Wunderground PWS Mod,2013-03-25 19:04:00,
2013-03-25 15:10:00,79.4,49.4,29.83,West,273,1.0,3.0,35,0.00,,,0.00,Wunderground PWS Mod,2013-03-25 19:10:00,
2013-03-25 15:12:00,79.6,50.3,29.82,WNW,293,0.0,2.0,36,0.00,,,0.00,Wunderground PWS Mod,2013-03-25 19:12:00,
2013-03-25 15:16:00,79.6,50.3,29.83,North,350,1.0,2.0,36,0.00,,,0.00,Wunderground PWS Mod,2013-03-25 19:16:00,
2013-03-25 15:22:00,79.6,50.3,29.82,NNE,28,1.0,5.0,36,0.00,,,0.00,Wunderground PWS Mod,2013-03-25 19:22:00,
2013-03-25 15:28:00,79.6,51.0,29.82,NNE,27,2.0,4.0,37,0.00,,,0.00,Wunderground PWS Mod,2013-03-25 19:28:00,
2013-03-25 15:34:00,79.6,49.5,29.82,WNW,292,1.0,2.0,35,0.00,,,0.00,Wunderground PWS Mod,2013-03-25 19:34:00,
2013-03-25 15:40:00,79.4,51.6,29.82,NNE,32,1.0,3.0,38,0.00,,,0.00,Wunderground PWS Mod,2013-03-25 19:40:00,
2013-03-25 15:48:00,79.2,52.1,29.82,North,355,1.0,1.0,39,0.00,,,0.00,Wunderground PWS Mod,2013-03-25 19:48:00,
2013-03-25 15:54:00,79.8,48.1,29.81,NW,304,0.0,1.0,33,0.00,,,0.00,Wunderground PWS Mod,2013-03-25 19:54:00,
2013-03-25 16:00:00,80.1,45.0,29.81,North,360,1.0,2.0,29,0.00,,,0.00,Wunderground PWS Mod,2013-03-25 20:00:00,
2013-03-25 16:02:00,80.3,45.1,29.80,WSW,248,0.0,2.0,29,0.00,,,0.00,Wunderground PWS Mod,2013-03-25 20:02:00,
2013-03-25 16:06:00,80.5,47.9,29.80,NW,308,1.0,1.0,32,0.00,,,0.00,Wunderground PWS Mod,2013-03-25 20:06:00,
2013-03-25 16:12:00,80.5,46.2,29.80,NNW,345,0.0,5.0,30,0.00,,,0.00,Wunderground PWS Mod,2013-03-25 20:12:00,
2013-03-25 16:18:00,80.5,45.3,29.80,NNW,327,1.0,1.0,29,0.00,,,0.00,Wunderground PWS Mod,2013-03-25 20:18:00,
2013-03-25 16:24:00,80.1,45.9,29.80,WSW,257,0.0,0.0,30,0.00,,,0.00,Wunderground PWS Mod,2013-03-25 20:24:00,
2013-03-25 16:30:00,79.4,53.6,29.80,North,5,1.0,1.0,41,0.00,,,0.00,Wunderground PWS Mod,2013-03-25 20:30:00,
2013-03-25 16:36:00,78.8,53.8,29.81,NW,323,1.0,3.0,42,0.00,,,0.00,Wunderground PWS Mod,2013-03-25 20:36:00,
2013-03-25 16:42:00,77.9,54.8,29.81,SSW,207,1.0,1.0,45,0.00,,,0.00,Wunderground PWS Mod,2013-03-25 20:42:00,
2013-03-25 16:44:00,75.4,53.8,29.81,ENE,68,0.0,1.0,47,0.00,,,0.00,Wunderground PWS Mod,2013-03-25 20:44:00,
2013-03-25 16:48:00,77.2,55.4,29.81,WNW,287,1.0,1.0,47,0.00,,,0.00,Wunderground PWS Mod,2013-03-25 20:48:00,
2013-03-25 16:54:00,76.5,53.6,29.81,WNW,292,1.0,1.0,45,0.00,,,0.00,Wunderground PWS Mod,2013-03-25 20:54:00,
2013-03-25 17:00:00,75.8,54.1,29.81,NW,304,1.0,3.0,47,0.00,,,0.00,Wunderground PWS Mod,2013-03-25 21:00:00,
2013-03-25 17:06:00,75.1,53.5,29.82,NW,314,1.0,3.0,47,0.00,,,0.00,Wunderground PWS Mod,2013-03-25 21:06:00,
2013-03-25 17:08:00,73.9,54.1,29.83,N/A,-737280,0.0,0.0,50,0.00,,,0.00,Wunderground PWS Mod,2013-03-25 21:08:00,
2013-03-25 17:14:00,74.6,55.3,29.82,SSW,203,1.0,1.0,51,0.00,,,0.00,Wunderground PWS Mod,2013-03-25 21:14:00,
2013-03-25 17:20:00,74.4,55.1,29.83,NW,319,1.0,3.0,51,0.00,,,0.00,Wunderground PWS Mod,2013-03-25 21:20:00,
2013-03-25 17:26:00,74.0,54.7,29.83,WNW,287,1.0,1.0,51,0.00,,,0.00,Wunderground PWS Mod,2013-03-25 21:26:00,
2013-03-25 17:32:00,73.5,54.3,29.83,WNW,288,0.0,1.0,51,0.00,,,0.00,Wunderground PWS Mod,2013-03-25 21:32:00,
2013-03-25 17:38:00,73.2,55.0,29.84,WNW,288,0.0,1.0,53,0.00,,,0.00,Wunderground PWS Mod,2013-03-25 21:38:00,
2013-03-25 17:42:00,71.6,54.1,29.85,SW,225,0.0,1.0,54,0.00,,,0.00,Wunderground PWS Mod,2013-03-25 21:42:00,
2013-03-25 17:44:00,72.7,54.6,29.84,SSW,207,0.0,2.0,53,0.00,,,0.00,Wunderground PWS Mod,2013-03-25 21:44:00,
2013-03-25 17:50:00,72.1,54.5,29.85,West,261,1.0,1.0,54,0.00,,,0.00,Wunderground PWS Mod,2013-03-25 21:50:00,
2013-03-25 17:56:00,71.8,54.3,29.85,SW,223,0.0,1.0,54,0.00,,,0.00,Wunderground PWS Mod,2013-03-25 21:56:00,
2013-03-25 18:02:00,71.5,54.0,29.85,SW,229,0.0,1.0,54,0.00,,,0.00,Wunderground PWS Mod,2013-03-25 22:02:00,
2013-03-25 18:08:00,71.3,54.3,29.85,NW,319,0.0,2.0,55,0.00,,,0.00,Wunderground PWS Mod,2013-03-25 22:08:00,
2013-03-25 18:14:00,71.1,53.6,29.85,NW,315,1.0,3.0,54,0.00,,,0.00,Wunderground PWS Mod,2013-03-25 22:14:00,
2013-03-25 18:20:00,71.1,54.6,29.86,NW,314,0.0,1.0,56,0.00,,,0.00,Wunderground PWS Mod,2013-03-25 22:20:00,
2013-03-25 18:26:00,71.1,54.6,29.86,NNE,23,0.0,1.0,56,0.00,,,0.00,Wunderground PWS Mod,2013-03-25 22:26:00,
2013-03-25 18:32:00,70.9,54.4,29.86,NNW,346,0.0,0.0,56,0.00,,,0.00,Wunderground PWS Mod,2013-03-25 22:32:00,
2013-03-25 18:38:00,70.6,54.6,29.86,NW,317,0.0,2.0,57,0.00,,,0.00,Wunderground PWS Mod,2013-03-25 22:38:00,
2013-03-25 18:40:00,69.9,55.4,29.87,N/A,-737280,0.0,0.0,60,0.00,,,0.00,Wunderground PWS Mod,2013-03-25 22:40:00,
2013-03-25 18:44:00,70.4,54.9,29.86,NW,317,0.0,0.0,58,0.00,,,0.00,Wunderground PWS Mod,2013-03-25 22:44:00,
2013-03-25 18:50:00,70.3,55.3,29.87,NW,317,0.0,0.0,59,0.00,,,0.00,Wunderground PWS Mod,2013-03-25 22:50:00,
2013-03-25 18:56:00,69.9,54.9,29.87,NW,317,0.0,0.0,59,0.00,,,0.00,Wunderground PWS Mod,2013-03-25 22:56:00,
2013-03-25 19:02:00,69.8,54.8,29.87,NW,317,0.0,0.0,59,0.00,,,0.00,Wunderground PWS Mod,2013-03-25 23:02:00,
2013-03-25 19:08:00,69.6,55.1,29.88,NW,317,0.0,0.0,60,0.00,,,0.00,Wunderground PWS Mod,2013-03-25 23:08:00,
2013-03-25 19:14:00,69.3,55.3,29.88,NW,317,0.0,0.0,61,0.00,,,0.00,Wunderground PWS Mod,2013-03-25 23:14:00,
2013-03-25 19:20:00,68.9,55.3,29.88,NW,317,0.0,0.0,62,0.00,,,0.00,Wunderground PWS Mod,2013-03-25 23:20:00,
2013-03-25 19:26:00,68.6,55.1,29.88,NW,317,0.0,0.0,62,0.00,,,0.00,Wunderground PWS Mod,2013-03-25 23:26:00,
2013-03-25 19:28:00,67.1,45.6,29.89,N/A,-737280,0.0,0.0,46,0.00,,,0.00,Wunderground PWS Mod,2013-03-25 23:28:00,
2013-03-25 19:32:00,68.3,55.2,29.88,NW,317,0.0,0.0,63,0.00,,,0.00,Wunderground PWS Mod,2013-03-25 23:32:00,
2013-03-25 19:38:00,67.9,55.3,29.89,NW,317,0.0,0.0,64,0.00,,,0.00,Wunderground PWS Mod,2013-03-25 23:38:00,
2013-03-25 19:44:00,67.3,47.5,29.89,NW,317,0.0,0.0,49,0.00,,,0.00,Wunderground PWS Mod,2013-03-25 23:44:00,
2013-03-25 19:50:00,66.9,44.3,29.90,NW,317,0.0,0.0,44,0.00,,,0.00,Wunderground PWS Mod,2013-03-25 23:50:00,
2013-03-25 19:56:00,66.6,40.9,29.90,NW,317,0.0,1.0,39,0.00,,,0.00,Wunderground PWS Mod,2013-03-25 23:56:00,
2013-03-25 20:02:00,66.3,37.8,29.90,NW,317,0.0,0.0,35,0.00,,,0.00,Wunderground PWS Mod,2013-03-26 00:02:00,
2013-03-25 20:08:00,66.3,35.5,29.91,NW,317,0.0,0.0,32,0.00,,,0.00,Wunderground PWS Mod,2013-03-26 00:08:00,
2013-03-25 20:10:00,65.5,33.2,29.91,N/A,-737280,0.0,0.0,30,0.00,,,0.00,Wunderground PWS Mod,2013-03-26 00:10:00,
2013-03-25 20:14:00,66.1,35.4,29.91,NW,317,0.0,0.0,32,0.00,,,0.00,Wunderground PWS Mod,2013-03-26 00:14:00,
2013-03-25 20:20:00,66.0,36.1,29.91,NW,317,0.0,0.0,33,0.00,,,0.00,Wunderground PWS Mod,2013-03-26 00:20:00,
2013-03-25 20:26:00,65.6,33.3,29.91,NW,317,0.0,0.0,30,0.00,,,0.00,Wunderground PWS Mod,2013-03-26 00:26:00,
2013-03-25 20:32:00,65.5,34.0,29.91,NW,317,0.0,0.0,31,0.00,,,0.00,Wunderground PWS Mod,2013-03-26 00:32:00,
2013-03-25 20:34:00,64.7,30.8,29.92,N/A,-737280,0.0,0.0,28,0.00,,,0.00,Wunderground PWS Mod,2013-03-26 00:34:00,
2013-03-25 20:38:00,65.2,32.1,29.92,NW,317,0.0,0.0,29,0.00,,,0.00,Wunderground PWS Mod,2013-03-26 00:38:00,
2013-03-25 20:44:00,65.0,31.1,29.92,North,9,0.0,2.0,28,0.00,,,0.00,Wunderground PWS Mod,2013-03-26 00:44:00,
2013-03-25 20:50:00,64.8,30.9,29.92,NNE,12,0.0,3.0,28,0.00,,,0.00,Wunderground PWS Mod,2013-03-26 00:50:00,
2013-03-25 20:56:00,64.7,30.8,29.92,NNE,12,0.0,0.0,28,0.00,,,0.00,Wunderground PWS Mod,2013-03-26 00:56:00,
2013-03-25 20:58:00,63.5,32.3,29.93,N/A,-737280,0.0,0.0,31,0.00,,,0.00,Wunderground PWS Mod,2013-03-26 00:58:00,
2013-03-25 21:02:00,64.3,30.5,29.92,NNE,12,0.0,0.0,28,0.00,,,0.00,Wunderground PWS Mod,2013-03-26 01:02:00,
2013-03-25 21:08:00,64.0,31.1,29.93,NNE,12,0.0,0.0,29,0.00,,,0.00,Wunderground PWS Mod,2013-03-26 01:08:00,
2013-03-25 21:14:00,63.7,30.8,29.93,NNE,12,0.0,0.0,29,0.00,,,0.00,Wunderground PWS Mod,2013-03-26 01:14:00,
2013-03-25 21:20:00,63.5,32.3,29.93,NNE,12,0.0,0.0,31,0.00,,,0.00,Wunderground PWS Mod,2013-03-26 01:20:00,
2013-03-25 21:26:00,63.2,32.8,29.93,NNE,12,0.0,0.0,32,0.00,,,0.00,Wunderground PWS Mod,2013-03-26 01:26:00,
2013-03-25 21:32:00,63.1,34.3,29.93,NNE,12,0.0,0.0,34,0.00,,,0.00,Wunderground PWS Mod,2013-03-26 01:32:00,
2013-03-25 21:34:00,62.0,37.4,29.95,N/A,-737280,0.0,0.0,40,0.00,,,0.00,Wunderground PWS Mod,2013-03-26 01:34:00,
2013-03-25 21:38:00,62.7,33.9,29.94,NNE,12,0.0,0.0,34,0.00,,,0.00,Wunderground PWS Mod,2013-03-26 01:38:00,
2013-03-25 21:44:00,62.6,35.9,29.94,NNE,12,0.0,0.0,37,0.00,,,0.00,Wunderground PWS Mod,2013-03-26 01:44:00,
2013-03-25 21:50:00,62.3,37.0,29.95,NNE,12,0.0,0.0,39,0.00,,,0.00,Wunderground PWS Mod,2013-03-26 01:50:00,
2013-03-25 21:56:00,61.6,37.0,29.95,NNE,12,0.0,0.0,40,0.00,,,0.00,Wunderground PWS Mod,2013-03-26 01:56:00,
2013-03-25 21:58:00,59.8,39.0,29.96,N/A,-737280,0.0,0.0,46,0.00,,,0.00,Wunderground PWS Mod,2013-03-26 01:58:00,
2013-03-25 22:04:00,60.7,37.5,29.96,NNE,12,0.0,0.0,42,0.00,,,0.00,Wunderground PWS Mod,2013-03-26 02:04:00,
2013-03-25 22:10:00,60.2,38.2,29.96,NNE,12,0.0,0.0,44,0.00,,,0.00,Wunderground PWS Mod,2013-03-26 02:10:00,
2013-03-25 22:16:00,59.8,39.0,29.96,NNE,12,0.0,0.0,46,0.00,,,0.00,Wunderground PWS Mod,2013-03-26 02:16:00,
2013-03-25 22:22:00,59.8,38.4,29.97,NNE,12,0.0,0.0,45,0.00,,,0.00,Wunderground PWS Mod,2013-03-26 02:22:00,
2013-03-25 22:24:00,59.9,38.5,29.97,N/A,-737280,0.0,0.0,45,0.00,,,0.00,Wunderground PWS Mod,2013-03-26 02:24:00,
2013-03-25 22:28:00,59.8,39.0,29.97,NNE,12,0.0,0.0,46,0.00,,,0.00,Wunderground PWS Mod,2013-03-26 02:28:00,
2013-03-25 22:34:00,59.8,38.4,29.97,NNE,12,0.0,0.0,45,0.00,,,0.00,Wunderground PWS Mod,2013-03-26 02:34:00,
2013-03-25 22:40:00,59.8,38.4,29.97,NNE,12,0.0,0.0,45,0.00,,,0.00,Wunderground PWS Mod,2013-03-26 02:40:00,
2013-03-25 22:46:00,59.9,38.5,29.97,NNE,12,0.0,0.0,45,0.00,,,0.00,Wunderground PWS Mod,2013-03-26 02:46:00,
2013-03-25 22:48:00,59.2,40.0,29.98,N/A,-737280,0.0,0.0,49,0.00,,,0.00,Wunderground PWS Mod,2013-03-26 02:48:00,
2013-03-25 22:52:00,59.6,38.8,29.98,NNE,12,0.0,0.0,46,0.00,,,0.00,Wunderground PWS Mod,2013-03-26 02:52:00,
2013-03-25 22:58:00,59.5,40.3,29.98,NNE,12,0.0,0.0,49,0.00,,,0.00,Wunderground PWS Mod,2013-03-26 02:58:00,
2013-03-25 23:04:00,59.3,40.1,29.98,NNE,12,0.0,0.0,49,0.00,,,0.00,Wunderground PWS Mod,2013-03-26 03:04:00,
2013-03-25 23:10:00,59.0,39.9,29.98,NNE,12,0.0,0.0,49,0.00,,,0.00,Wunderground PWS Mod,2013-03-26 03:10:00,
2013-03-25 23:16:00,58.7,41.1,29.98,NNE,12,0.0,0.0,52,0.00,,,0.00,Wunderground PWS Mod,2013-03-26 03:16:00,
2013-03-25 23:22:00,58.6,40.5,29.99,NNE,12,0.0,0.0,51,0.00,,,0.00,Wunderground PWS Mod,2013-03-26 03:22:00,
2013-03-25 23:24:00,58.3,43.1,29.98,N/A,-737280,0.0,0.0,57,0.00,,,0.00,Wunderground PWS Mod,2013-03-26 03:24:00,
2013-03-25 23:28:00,58.4,41.8,29.99,NNE,12,0.0,0.0,54,0.00,,,0.00,Wunderground PWS Mod,2013-03-26 03:28:00,
2013-03-25 23:34:00,58.4,41.8,29.98,NNE,12,0.0,0.0,54,0.00,,,0.00,Wunderground PWS Mod,2013-03-26 03:34:00,
2013-03-25 23:40:00,58.3,42.2,29.98,NNE,12,0.0,0.0,55,0.00,,,0.00,Wunderground PWS Mod,2013-03-26 03:40:00,
2013-03-25 23:46:00,58.1,42.9,29.98,NNE,12,0.0,0.0,57,0.00,,,0.00,Wunderground PWS Mod,2013-03-26 03:46:00,
2013-03-25 23:52:00,58.1,42.9,29.99,NNE,12,0.0,0.0,57,0.00,,,0.00,Wunderground PWS Mod,2013-03-26 03:52:00,
2013-03-25 23:54:00,57.8,43.1,29.99,N/A,-737280,0.0,0.0,58,0.00,,,0.00,Wunderground PWS Mod,2013-03-26 03:54:00,
2013-03-25 23:58:00,58.1,42.9,29.99,NNE,12,0.0,0.0,57,0.00,,,0.00,Wunderground PWS Mod,2013-03-26 03:58:00,